[[{"header":{"parameterUnit":"m.s-1","parameterCategory":1,"la1":30.2991,"la2":30.254,"lo1":-89.0895,"lo2":-89.0444,"dy":0.0017,"dx":0.0017,"nx":28,"ny":28,"refTime":"2025-12-29T09:00:00:Z","depth":0,"parameterNumber":2,"parameterNumberName":"U-component_of_WINDS"},"data":[0,0,0,0,0,0,0,0,0,0,0,0,0,0,0,0,0,0,0,0,0,0,0,0,0,0,0,0,0,0,0,0,0,0,0,0,0,0,0,0,0,0,0,0,0,0,0,0,0,0,0,0,0,0,0,0,0,0,2.0362,2.0362,0,2.0391,2.0391,2.0392,2.0387,2.0386,2.0386,2.0385,2.0414,2.0415,2.0417,0,0,0,0,0,0,0,0,0,0,0,0,0,2.0302,2.0304,2.0362,2.0362,2.0362,2.0391,2.0391,2.0392,2.0387,2.0386,2.0386,2.0385,2.0414,2.0415,2.0417,0,0,0,0,0,0,0,0,0,0,0,0,0,2.033,2.0304,2.0362,2.0363,2.0364,2.0391,2.0391,2.0392,2.0387,2.0386,2.0385,2.0385,2.0413,2.0415,2.0417,2.0444,0,0,2.0423,2.0424,0,0,0,0,0,0,0,0,2.0328,2.0332,2.0363,2.0363,2.0364,2.0384,2.0381,2.0409,2.0387,2.0378,2.0385,2.0384,2.0405,2.0407,2.0415,2.0445,2.0446,2.0423,2.0424,2.0425,2.0425,0,0,0,0,0,0,0,2.0326,2.033,2.0373,2.0363,2.0364,2.0363,2.0366,2.0386,2.0395,2.0379,2.0379,2.0382,2.0405,2.0413,2.0415,2.0447,2.0423,2.0425,2.0426,2.0426,2.0503,2.0504,0,0,0,0,0,0,2.0324,2.0329,2.0372,2.0374,2.0344,2.0365,2.0368,2.0379,2.0395,2.0397,2.0383,2.0382,2.041,2.0413,2.0416,2.045,2.0425,2.0427,2.0428,2.0502,2.0503,2.0504,0,0,0,0,0,0,2.0322,2.0328,2.0371,2.0351,2.0357,2.0367,2.0378,2.038,2.0387,2.0398,2.04,2.0389,2.0409,2.0414,2.0437,2.0451,2.0427,2.0429,2.0501,2.0502,2.0504,2.0516,0,0,0,0,0,0,2.0321,2.0327,2.0337,2.0352,2.0358,2.0392,2.0379,2.0381,2.0391,2.039,2.0404,2.0406,2.0409,2.0435,2.0439,2.0453,2.0431,2.05,2.0502,2.0503,2.0515,2.0518,2.0521,0,0,0,0,0,2.0319,2.0339,2.0338,2.0343,2.0371,2.0392,2.0396,2.0399,2.0392,2.0402,2.0409,2.0406,2.0449,2.0437,2.0442,2.0456,2.0499,2.0501,2.0503,2.0513,2.0517,2.052,0,0,0,0,0,0,2.0324,2.0341,2.0339,2.0365,2.0377,2.0391,2.0404,2.0403,2.0418,2.0416,2.042,2.0423,2.0448,2.0455,2.0442,2.0484,2.0473,2.0476,2.0479,2.0483,2.0485,2.0483,2.0432,0,0,0,0,0,2.0329,2.0345,2.0358,2.038,2.0386,2.0394,2.0404,2.0406,2.0419,2.0424,2.0433,2.0445,2.0462,2.0473,2.0488,2.0516,2.052,2.0529,2.0531,2.0534,2.0536,2.0553,2.0557,2.0511,2.0511,2.0511,0,0,2.0338,2.0349,2.0358,2.0381,2.0391,2.0408,2.0399,2.0417,2.043,2.0426,2.045,2.0457,2.0472,2.0498,2.051,2.0504,2.055,2.0536,2.0538,2.054,2.0556,2.056,2.0564,2.0512,2.0512,2.0512,0,0,2.0363,2.0372,2.0392,2.0403,2.0418,2.0424,2.0429,2.0444,2.0449,2.0472,2.0471,2.0486,2.0514,2.0525,2.0535,2.0567,2.0564,2.0572,2.0587,2.0603,2.0607,2.061,2.0622,2.0627,2.0574,2.0575,2.0575,0,2.0372,2.0397,2.0402,2.0421,2.0432,2.0431,2.0451,2.0461,2.0481,2.0488,2.0482,2.0519,2.0528,2.0558,2.0566,2.0573,2.0579,2.057,2.0606,2.0609,2.0612,2.0624,2.0629,2.0575,2.0575,2.0575,2.0575,0,2.0408,2.0426,2.044,2.0461,2.0473,2.0492,2.05,2.0512,2.0514,2.052,2.0546,2.0558,2.0576,2.0584,2.0585,2.0614,2.061,2.0605,2.0593,2.0618,2.0629,2.0633,2.0577,2.0576,2.0576,2.0576,0,0,2.0436,2.046,2.0465,2.0475,2.0493,2.0508,2.0528,2.0547,2.0558,2.0572,2.0589,2.0615,2.0611,2.0621,2.0624,2.0638,2.0664,2.0631,2.0632,2.0637,2.0698,2.0702,2.0707,2.0663,2.0664,2.0665,2.0697,0,2.0463,2.0499,2.0504,2.0536,2.0554,2.0554,2.0572,2.0585,2.0593,2.0609,2.0617,2.0635,2.0628,2.0635,2.0649,2.0658,2.0676,2.0656,2.068,2.068,2.0676,2.0713,2.0717,2.0747,2.0702,2.0702,2.0703,0,2.0499,2.0515,2.0549,2.0567,2.0574,2.059,2.0609,2.0625,2.0641,2.0645,2.0658,2.066,2.0682,2.067,2.0701,2.0687,2.0697,2.0703,2.0705,2.0707,2.0693,2.0716,2.0757,2.0761,2.071,2.0709,2.0709,0,2.0516,2.0547,2.0572,2.058,2.0601,2.0612,2.0622,2.0637,2.0649,2.0666,2.0674,2.0693,2.0703,2.0718,2.0726,2.0716,2.0756,2.0745,2.0761,2.0761,2.0769,2.0768,2.0811,2.0776,2.0776,2.0776,2.0775,0,2.0546,2.0567,2.058,2.0595,2.0619,2.0626,2.0649,2.0658,2.0672,2.069,2.0691,2.0707,2.0716,2.0734,2.074,2.0765,2.0769,2.0774,2.0775,2.0774,2.0773,2.078,2.0778,2.0777,2.0776,2.0776,2.0776,0,2.0569,2.0579,2.0606,2.0624,2.063,2.0646,2.0662,2.0677,2.0686,2.0708,2.0713,2.0726,2.0747,2.0756,2.0782,2.0786,2.0815,2.0815,2.081,2.081,2.0826,2.0825,2.0876,2.0883,2.0842,2.0843,2.0843,0,2.0587,2.0603,2.0624,2.0636,2.0646,2.0665,2.0678,2.0686,2.0699,2.072,2.0733,2.0755,2.0772,2.0806,2.0818,2.0838,2.0839,2.0855,2.0842,2.084,2.084,2.0839,2.0841,2.0857,2.0858,2.0858,2.0858,0,2.0618,2.0623,2.0641,2.0662,2.0677,2.0693,2.071,2.0719,2.073,2.0745,2.0767,2.0781,2.0809,2.083,2.0852,2.0862,2.0862,2.0863,2.0868,2.0866,2.0863,2.0866,2.0817,2.0861,2.0861,2.0861,2.0861,2.0861,2.064,2.0655,2.0673,2.0693,2.0707,2.0722,2.0738,2.0749,2.0767,2.0791,2.0795,2.0819,2.0836,2.0865,2.0877,2.0896,2.0892,2.0899,2.09,2.0902,2.0903,2.086,2.09,2.09,2.09,2.09,2.09,0,2.0672,2.0684,2.0703,2.0726,2.0743,2.0743,2.0761,2.0775,2.0796,2.0813,2.0831,2.0857,2.0879,2.0893,2.0915,2.0928,2.0929,2.0934,2.0933,2.0936,2.0906,2.0899,2.0933,2.0933,2.0933,2.0933,2.0933,2.0933,2.069,2.0716,2.0723,2.0756,2.0768,2.0792,2.0803,2.0818,2.0831,2.0861,2.0879,2.0889,2.0905,2.0928,2.0949,2.0953,2.0961,2.0966,2.0969,2.0941,2.0937,2.0934,2.0928,2.0967,2.0967,2.0998,2.0998,2.0998]},{"header":{"parameterUnit":"m.s-1","parameterCategory":1,"la1":30.2991,"la2":30.254,"lo1":-89.0895,"lo2":-89.0444,"dy":0.0017,"dx":0.0017,"nx":28,"ny":28,"refTime":"2025-12-29T09:00:00:Z","depth":0,"parameterNumber":3,"parameterNumberName":"V-component_of_WINDS"},"data":[0,0,0,0,0,0,0,0,0,0,0,0,0,0,0,0,0,0,0,0,0,0,0,0,0,0,0,0,0,0,0,0,0,0,0,0,0,0,0,0,0,0,0,0,0,0,0,0,0,0,0,0,0,0,0,0,0,0,-7.224,-7.2241,0,-7.2368,-7.237,-7.2371,-7.2343,-7.2341,-7.2339,-7.2336,-7.2462,-7.2467,-7.2473,0,0,0,0,0,0,0,0,0,0,0,0,0,-7.1967,-7.1972,-7.224,-7.2241,-7.2243,-7.2368,-7.237,-7.2371,-7.2344,-7.2341,-7.2338,-7.2335,-7.246,-7.2467,-7.2473,0,0,0,0,0,0,0,0,0,0,0,0,0,-7.2089,-7.1974,-7.224,-7.2244,-7.2246,-7.2368,-7.237,-7.2372,-7.2344,-7.2341,-7.2337,-7.2334,-7.2458,-7.2466,-7.2474,-7.2597,0,0,-7.25,-7.2503,0,0,0,0,0,0,0,0,-7.2083,-7.2099,-7.2242,-7.2244,-7.2247,-7.2336,-7.232,-7.2447,-7.2345,-7.2307,-7.2336,-7.2332,-7.2423,-7.2434,-7.2465,-7.2603,-7.2608,-7.25,-7.2505,-7.2509,-7.2511,0,0,0,0,0,0,0,-7.2074,-7.2094,-7.229,-7.2244,-7.2247,-7.2239,-7.2252,-7.2344,-7.2383,-7.231,-7.2308,-7.2324,-7.2423,-7.2457,-7.2468,-7.261,-7.25,-7.2508,-7.2513,-7.2516,-7.2856,-7.286,0,0,0,0,0,0,-7.2064,-7.2087,-7.2286,-7.2294,-7.2154,-7.2247,-7.2262,-7.2311,-7.2382,-7.2389,-7.2327,-7.2322,-7.2445,-7.2458,-7.2472,-7.2622,-7.2509,-7.2517,-7.2522,-7.2852,-7.2857,-7.2862,0,0,0,0,0,0,-7.2059,-7.2082,-7.2281,-7.219,-7.2215,-7.2255,-7.2311,-7.2315,-7.235,-7.2395,-7.2401,-7.2355,-7.2443,-7.2461,-7.2567,-7.2626,-7.2521,-7.2528,-7.2848,-7.2854,-7.2859,-7.2921,0,0,0,0,0,0,-7.2051,-7.2081,-7.2128,-7.2192,-7.222,-7.2375,-7.2314,-7.232,-7.2365,-7.236,-7.2423,-7.243,-7.2441,-7.2555,-7.2575,-7.2635,-7.2535,-7.2842,-7.285,-7.2858,-7.2914,-7.2929,-7.2941,0,0,0,0,0,-7.2041,-7.2139,-7.2131,-7.2155,-7.2281,-7.2379,-7.2395,-7.2407,-7.237,-7.2418,-7.2447,-7.2428,-7.2616,-7.2566,-7.2589,-7.2652,-7.2839,-7.2848,-7.2857,-7.2908,-7.2926,-7.2941,0,0,0,0,0,0,-7.2079,-7.2147,-7.2139,-7.2261,-7.2314,-7.2374,-7.2434,-7.2425,-7.2489,-7.2482,-7.2493,-7.2507,-7.2616,-7.2644,-7.2587,-7.2776,-7.2722,-7.2736,-7.2753,-7.277,-7.2784,-7.2774,-7.2542,0,0,0,0,0,-7.2102,-7.2177,-7.2232,-7.2334,-7.2362,-7.2394,-7.2436,-7.2442,-7.2497,-7.2519,-7.2556,-7.2609,-7.268,-7.2727,-7.2795,-7.2918,-7.2932,-7.2973,-7.2987,-7.2998,-7.301,-7.3079,-7.3098,-7.2892,-7.2891,-7.2891,0,0,-7.2149,-7.2196,-7.2242,-7.2343,-7.2385,-7.2462,-7.2413,-7.2495,-7.2552,-7.2531,-7.2635,-7.2664,-7.2724,-7.284,-7.2893,-7.2867,-7.307,-7.3009,-7.3018,-7.3024,-7.309,-7.311,-7.3127,-7.2898,-7.2897,-7.2896,0,0,-7.2275,-7.2317,-7.2408,-7.2452,-7.2518,-7.2539,-7.2561,-7.2623,-7.2642,-7.2747,-7.2733,-7.28,-7.2922,-7.2966,-7.3004,-7.3149,-7.3134,-7.317,-7.3241,-7.3308,-7.3324,-7.3339,-7.3391,-7.341,-7.3182,-7.3182,-7.3182,0,-7.2324,-7.2441,-7.2455,-7.254,-7.2585,-7.2572,-7.2664,-7.2705,-7.2789,-7.2819,-7.279,-7.2945,-7.2984,-7.3111,-7.3147,-7.3178,-7.3203,-7.3163,-7.3321,-7.3336,-7.3349,-7.3399,-7.3419,-7.3186,-7.3186,-7.3186,-7.3185,0,-7.25,-7.2581,-7.2646,-7.273,-7.2782,-7.2869,-7.2896,-7.2947,-7.2948,-7.2972,-7.3079,-7.3127,-7.3205,-7.3235,-7.3236,-7.3363,-7.3345,-7.3318,-7.3264,-7.3373,-7.342,-7.3439,-7.3192,-7.3191,-7.319,-7.3189,0,0,-7.2651,-7.2744,-7.2768,-7.2806,-7.2879,-7.2941,-7.3028,-7.3107,-7.3151,-7.3209,-7.3283,-7.3388,-7.3364,-7.3408,-7.3414,-7.3473,-7.3586,-7.3439,-7.344,-7.3465,-7.3729,-7.3749,-7.3771,-7.3576,-7.358,-7.3583,-7.3725,0,-7.2784,-7.294,-7.2956,-7.3095,-7.3171,-7.3161,-7.3237,-7.3289,-7.3314,-7.3381,-7.3407,-7.3482,-7.3445,-7.3472,-7.353,-7.356,-7.3639,-7.355,-7.3644,-7.3647,-7.363,-7.3796,-7.3817,-7.3948,-7.3743,-7.3746,-7.3748,0,-7.2959,-7.3026,-7.3173,-7.3238,-7.327,-7.3338,-7.3413,-7.3477,-7.3536,-7.355,-7.36,-7.3599,-7.3688,-7.3631,-7.3754,-7.3694,-7.3733,-7.3754,-7.3759,-7.3768,-7.3704,-7.381,-7.399,-7.401,-7.3777,-7.3775,-7.3773,0,-7.3056,-7.3182,-7.3287,-7.3321,-7.3398,-7.3447,-7.3481,-7.3536,-7.3583,-7.3648,-7.3679,-7.3752,-7.3792,-7.3848,-7.3866,-7.3823,-7.3989,-7.3933,-7.4003,-7.4002,-7.4038,-7.4035,-7.4227,-7.4063,-7.4063,-7.4062,-7.4062,0,-7.3202,-7.3293,-7.3332,-7.3397,-7.3499,-7.3516,-7.3616,-7.3647,-7.3697,-7.3767,-7.3762,-7.3827,-7.3847,-7.3916,-7.3931,-7.4031,-7.4049,-7.4062,-7.4065,-7.4063,-7.4061,-7.4089,-7.408,-7.4067,-7.4066,-7.4065,-7.4064,0,-7.3327,-7.3357,-7.3472,-7.3537,-7.3555,-7.3627,-7.3682,-7.3744,-7.3769,-7.3858,-7.3879,-7.3918,-7.3999,-7.4023,-7.4119,-7.4129,-7.4247,-7.4241,-7.4228,-7.4228,-7.4296,-7.429,-7.4513,-7.4543,-7.4359,-7.436,-7.4362,0,-7.3419,-7.3489,-7.3563,-7.3611,-7.3648,-7.3724,-7.3773,-7.3793,-7.3844,-7.3918,-7.3971,-7.4052,-7.4117,-7.4247,-7.4282,-7.4356,-7.4352,-7.4426,-7.4363,-7.436,-7.4354,-7.435,-7.4358,-7.4437,-7.4439,-7.4441,-7.4442,0,-7.3579,-7.3591,-7.3663,-7.3741,-7.38,-7.3862,-7.3921,-7.396,-7.3988,-7.4045,-7.413,-7.4181,-7.4281,-7.4361,-7.4437,-7.447,-7.4461,-7.4462,-7.4482,-7.448,-7.447,-7.4477,-7.426,-7.4456,-7.4455,-7.4454,-7.4453,-7.4452,-7.3691,-7.3754,-7.3816,-7.3896,-7.3944,-7.4,-7.4062,-7.4096,-7.4168,-7.4252,-7.4259,-7.435,-7.4409,-7.451,-7.4548,-7.4618,-7.4597,-7.4625,-7.4633,-7.464,-7.4646,-7.4459,-7.4632,-7.4631,-7.4631,-7.4631,-7.4631,0,-7.3851,-7.3892,-7.3966,-7.4051,-7.4114,-7.4103,-7.4168,-7.4221,-7.4302,-7.4359,-7.4424,-7.4522,-7.46,-7.4643,-7.472,-7.4769,-7.4767,-7.4789,-7.4785,-7.4793,-7.466,-7.4636,-7.4789,-7.4789,-7.4789,-7.4789,-7.4789,-7.4789,-7.3942,-7.4049,-7.4068,-7.4198,-7.4237,-7.4328,-7.4367,-7.4418,-7.4464,-7.4573,-7.4639,-7.4668,-7.4719,-7.4801,-7.4872,-7.4882,-7.4911,-7.4936,-7.4944,-7.4819,-7.4802,-7.4787,-7.4764,-7.4942,-7.4942,-7.5071,-7.5072,-7.5073]}]]